Crane Lake, MN

8:28 AM CST on December 17, 2017 (GMT -0600)
Crane Lake

Weather History for KCDD - September, 2013

Change the Weather History Date:

Saturday, September 21, 2013

  Actual Average Record
Temperature  
Mean Temperature 42 °F -  
Max Temperature 55 °F 61 °F 78 °F (2015)
Min Temperature 30 °F 42 °F 5 °F (2000)
Degree Days  
Heating Degree Days 22    
Moisture  
Dew Point 40 °F    
Average Humidity 92    
Maximum Humidity 100    
Minimum Humidity 71    
Precipitation  
Precipitation 0.00 in - - ()
Sea Level Pressure  
Sea Level Pressure 29.96 in    
Wind  
Wind Speed 3 mph (NNW)    
Max Wind Speed 8 mph    
Max Gust Speed -    
Visibility 10 miles    
Events      
Averages and records for this station are not official NWS values.
T = Trace of Precipitation, MM = Missing Value Source: NWS Daily Summary

Daily Weather History Graph

Daily Weather History Graph

Search for Another Location

Airport or City:

Trip Planner

Search our weather history database for the weather conditions in past years. The results will help you decide how hot, cold, wet, or windy it might be!

Date:

Astronomy

Sep. 21, 2013 Rise Set
Actual Time 6:55 AM CDT 7:09 PM CDT
Civil Twilight 6:24 AM CDT 7:40 PM CDT
Nautical Twilight 5:47 AM CDT 8:17 PM CDT
Astronomical Twilight 5:09 AM CDT 8:54 PM CDT
Moon 8:04 PM CDT (9/21) 9:28 AM CDT (9/21)
Length of Visible Light 13h 16m
Length of Day
12h 13m
Waning Gibbous, 94% of the Moon is Illuminated
Sep 21
Waning Gibbous
Sep 26
Last Quarter
Oct 4
New
Oct 11
First Quarter
Oct 18
Full

Hourly Weather History & Observations

Time (CDT) Temp. Windchill Dew Point Humidity Pressure Visibility Wind Dir Wind Speed Gust Speed Precip Events Conditions
12:14 AM 42.8 °F 39.3 °F 41.0 °F 93% 29.89 in 10.0 mi North 5.8 mph - N/A   Overcast
12:34 AM 42.8 °F 38.6 °F 41.0 °F 93% 29.89 in 10.0 mi NNW 6.9 mph - N/A   Overcast
12:54 AM 42.8 °F - 41.0 °F 93% 29.90 in 10.0 mi Calm Calm - N/A   Overcast
1:14 AM 42.8 °F - 41.0 °F 93% 29.90 in 10.0 mi Calm Calm - N/A   Overcast
1:34 AM 42.8 °F - 41.0 °F 93% 29.90 in 10.0 mi Calm Calm - N/A   Overcast
1:54 AM 42.8 °F - 41.0 °F 93% 29.91 in 10.0 mi Calm Calm - N/A   Overcast
2:14 AM 42.8 °F - 42.8 °F 100% 29.91 in 10.0 mi Calm Calm - N/A   Overcast
2:34 AM 42.8 °F - 41.0 °F 93% 29.91 in 10.0 mi Calm Calm - N/A   Overcast
2:54 AM 42.8 °F 39.3 °F 41.0 °F 93% 29.91 in 10.0 mi NNW 5.8 mph - N/A   Overcast
3:14 AM 41.0 °F 37.1 °F 39.2 °F 93% 29.91 in 10.0 mi North 5.8 mph - N/A   Mostly Cloudy
3:34 AM 39.2 °F - 39.2 °F 100% 29.92 in 10.0 mi Calm Calm - N/A   Clear
3:54 AM 37.4 °F - 37.4 °F 100% 29.92 in 10.0 mi Calm Calm - N/A   Clear
4:14 AM 37.4 °F - 37.4 °F 100% 29.93 in 10.0 mi Calm Calm - N/A   Clear
4:34 AM 37.4 °F - 35.6 °F 93% 29.93 in 10.0 mi Calm Calm - N/A   Clear
4:54 AM 35.6 °F - 35.6 °F 100% 29.94 in 10.0 mi Calm Calm - N/A   Clear
5:14 AM 35.6 °F - 33.8 °F 93% 29.94 in 10.0 mi Calm Calm - N/A   Clear
5:34 AM 33.8 °F - 33.8 °F 100% 29.94 in 10.0 mi Calm Calm - N/A   Scattered Clouds
5:54 AM 35.6 °F - 33.8 °F 93% 29.95 in 10.0 mi Calm Calm - N/A   Mostly Cloudy
6:14 AM 35.6 °F - 35.6 °F 100% 29.95 in 10.0 mi Calm Calm - N/A   Overcast
6:34 AM 35.6 °F - 35.6 °F 100% 29.96 in 10.0 mi Calm Calm - N/A   Mostly Cloudy
6:54 AM 35.6 °F - 35.6 °F 100% 29.97 in 10.0 mi Calm Calm - N/A   Mostly Cloudy
7:14 AM 35.6 °F - 35.6 °F 100% 29.97 in 10.0 mi Calm Calm - N/A   Mostly Cloudy
7:34 AM 37.4 °F 34.9 °F 37.4 °F 100% 29.98 in 10.0 mi NNW 3.5 mph - N/A   Scattered Clouds
7:54 AM 37.4 °F 34.9 °F 37.4 °F 100% 29.98 in 10.0 mi NNW 3.5 mph - N/A   Clear
8:14 AM 37.4 °F 34.9 °F 37.4 °F 100% 29.98 in 10.0 mi NNW 3.5 mph - N/A   Clear
8:34 AM 37.4 °F 34.9 °F 37.4 °F 100% 29.98 in 10.0 mi NW 3.5 mph - N/A   Clear
8:54 AM 39.2 °F 35.9 °F 37.4 °F 93% 29.99 in 10.0 mi NNW 4.6 mph - N/A   Mostly Cloudy
9:14 AM 39.2 °F 35.0 °F 39.2 °F 100% 29.99 in 10.0 mi NNW 5.8 mph - N/A   Mostly Cloudy
9:34 AM 42.8 °F 39.3 °F 42.8 °F 100% 29.99 in 10.0 mi NW 5.8 mph - N/A   Overcast
9:54 AM 42.8 °F 39.3 °F 42.8 °F 100% 29.99 in 10.0 mi NW 5.8 mph - N/A   Overcast
10:14 AM 42.8 °F 38.0 °F 42.8 °F 100% 29.99 in 10.0 mi NW 8.1 mph - N/A   Mostly Cloudy
10:34 AM 44.6 °F 40.2 °F 42.8 °F 93% 30.00 in 10.0 mi NNW 8.1 mph - N/A   Scattered Clouds
10:54 AM 46.4 °F 42.9 °F 46.4 °F 100% 30.00 in 10.0 mi NNW 6.9 mph - N/A   Scattered Clouds
11:14 AM 46.4 °F 44.3 °F 46.4 °F 100% 29.99 in 10.0 mi NNW 4.6 mph - N/A   Scattered Clouds
11:34 AM 50.0 °F - 48.2 °F 94% 29.99 in 10.0 mi NNW 3.5 mph - N/A   Scattered Clouds
11:54 AM 48.2 °F - 46.4 °F 93% 29.99 in 10.0 mi North 6.9 mph - N/A   Mostly Cloudy
12:14 PM 48.2 °F - 46.4 °F 93% 29.99 in 10.0 mi NNW 8.1 mph - N/A   Overcast
12:34 PM 46.4 °F 42.9 °F 46.4 °F 100% 29.99 in 10.0 mi NW 6.9 mph - N/A   Mostly Cloudy
12:54 PM 51.8 °F - 48.2 °F 88% 29.99 in 10.0 mi North 4.6 mph - N/A   Scattered Clouds
1:14 PM 51.8 °F - 50.0 °F 94% 29.99 in 10.0 mi NNW 4.6 mph - N/A   Mostly Cloudy
1:34 PM 51.8 °F - 48.2 °F 88% 29.98 in 10.0 mi NNW 8.1 mph - N/A   Mostly Cloudy
1:54 PM 51.8 °F - 50.0 °F 94% 29.98 in 10.0 mi North 4.6 mph - N/A   Mostly Cloudy
2:14 PM 53.6 °F - 50.0 °F 88% 29.98 in 10.0 mi NW 6.9 mph - N/A   Mostly Cloudy
2:34 PM 51.8 °F - 48.2 °F 88% 29.98 in 10.0 mi WNW 3.5 mph - N/A   Scattered Clouds
2:54 PM 53.6 °F - 50.0 °F 88% 29.98 in 10.0 mi North 3.5 mph - N/A   Clear
3:14 PM 53.6 °F - 51.8 °F 94% 29.97 in 10.0 mi North 4.6 mph - N/A   Clear
3:34 PM 53.6 °F - 50.0 °F 88% 29.97 in 10.0 mi NNE 6.9 mph - N/A   Clear
3:54 PM 53.6 °F - 50.0 °F 88% 29.97 in 10.0 mi North 5.8 mph - N/A   Clear
4:14 PM 55.4 °F - 51.8 °F 88% 29.96 in 10.0 mi North 5.8 mph - N/A   Clear
4:34 PM 55.4 °F - 48.2 °F 77% 29.97 in 10.0 mi North 3.5 mph - N/A   Clear
4:54 PM 55.4 °F - 48.2 °F 77% 29.97 in 10.0 mi Calm Calm - N/A   Clear
5:14 PM 55.4 °F - 48.2 °F 77% 29.96 in 10.0 mi Calm Calm - N/A   Clear
5:34 PM 55.4 °F - 48.2 °F 77% 29.96 in 10.0 mi North 4.6 mph - N/A   Clear
5:54 PM 55.4 °F - 48.2 °F 77% 29.96 in 10.0 mi Calm Calm - N/A   Clear
6:14 PM 53.6 °F - 48.2 °F 82% 29.96 in 10.0 mi Calm Calm - N/A   Clear
6:34 PM 51.8 °F - 42.8 °F 71% 29.96 in 10.0 mi Calm Calm - N/A   Clear
6:54 PM 44.6 °F - 37.4 °F 76% 29.96 in 10.0 mi Calm Calm - N/A   Clear
7:14 PM 41.0 °F - 35.6 °F 81% 29.96 in 10.0 mi Calm Calm - N/A   Clear
7:34 PM 39.2 °F - 33.8 °F 81% 29.96 in 10.0 mi Calm Calm - N/A   Clear
7:54 PM 37.4 °F - 33.8 °F 87% 29.97 in 10.0 mi Calm Calm - N/A   Clear
8:14 PM 35.6 °F - 33.8 °F 93% 29.97 in 10.0 mi Calm Calm - N/A   Clear
8:34 PM 35.6 °F - 32.0 °F 87% 29.97 in 10.0 mi Calm Calm - N/A   Clear
8:54 PM 35.6 °F - 32.0 °F 87% 29.98 in 10.0 mi Calm Calm - N/A   Clear
9:14 PM 33.8 °F - 30.2 °F 87% 29.98 in 10.0 mi Calm Calm - N/A   Clear
9:34 PM 33.8 °F - 30.2 °F 87% 29.98 in 10.0 mi Calm Calm - N/A   Clear
9:54 PM 33.8 °F - 30.2 °F 87% 29.98 in 10.0 mi Calm Calm - N/A   Clear
10:14 PM 32.0 °F - 30.2 °F 93% 29.99 in 10.0 mi Calm Calm - N/A   Clear
10:34 PM 32.0 °F - 30.2 °F 93% 30.00 in 10.0 mi Calm Calm - N/A   Clear
10:54 PM 30.2 °F - 28.4 °F 93% 30.00 in 10.0 mi Calm Calm - N/A   Clear
11:14 PM 30.2 °F - 28.4 °F 93% 30.00 in 10.0 mi Calm Calm - N/A   Clear
11:34 PM 30.2 °F - 28.4 °F 93% 30.00 in 10.0 mi Calm Calm - N/A   Clear
11:54 PM 30.2 °F - 28.4 °F 93% 30.00 in 10.0 mi Calm Calm - N/A   Clear